This is the latest recevied weather packets stored in our database for station/object KA9CBS. If no packets are shown the sender has not sent any weather packets the latest 10 day(s).
| Time | Temp. | Humidity | Pressure | Rain* | Wind** | Luminosity | Snow |
|---|---|---|---|---|---|---|---|
| 1787580428 | 21.67° C | 77% | 1020.1 hPa | 0 mm | - | 279 W/m² | - |
| 1787580123 | 21.11° C | 77% | 1020 hPa | 0 mm | - | 262 W/m² | - |
| 1787579822 | 21.11° C | 80% | 1020.2 hPa | 0 mm | - | 253 W/m² | - |
| 1787579517 | 20.56° C | 79% | 1020.1 hPa | 0 mm | - | 164 W/m² | - |
| 1787579212 | 20.56° C | 82% | 1020.1 hPa | 0 mm | - | 246 W/m² | - |
| 1787578908 | 20° C | 83% | 1020.3 hPa | 0 mm | - | 247 W/m² | - |
| 1787578604 | 20° C | 85% | 1020.3 hPa | 0 mm | - | 224 W/m² | - |
| 1787578303 | 19.44° C | 86% | 1020.2 hPa | 0 mm | - | 189 W/m² | - |
| 1787577998 | 18.89° C | 90% | 1020.1 hPa | 0 mm | - | 164 W/m² | - |
| 1787577694 | 18.33° C | 92% | 1020.4 hPa | 0 mm | - | 165 W/m² | - |
| 1787577390 | 18.33° C | 96% | 1020.2 hPa | 0 mm | - | 100 W/m² | - |
| 1787577085 | 17.78° C | 98% | 1020.2 hPa | 0 mm | - | 81 W/m² | - |
| 1787576781 | 17.22° C | 99% | 1020.3 hPa | 0 mm | - | 70 W/m² | - |
| 1787576476 | 17.22° C | 99% | 1020.1 hPa | 0 mm | - | 64 W/m² | - |
| 1787576173 | 17.22° C | 99% | 1020.3 hPa | 0 mm | - | 57 W/m² | - |
| 1787575867 | 16.67° C | 99% | 1020.4 hPa | 0 mm | - | 57 W/m² | - |
| 1787575563 | 16.11° C | 99% | 1020.5 hPa | 0 mm | - | 51 W/m² | - |
| 1787575258 | 16.11° C | 99% | 1020.1 hPa | 0 mm | - | 44 W/m² | - |
| 1787574953 | 15.56° C | 99% | 1020 hPa | 0 mm | - | 42 W/m² | - |
| 1787574648 | 15.56° C | 99% | 1019.9 hPa | 0 mm | - | 36 W/m² | - |
| 1787574343 | 15° C | 99% | 1020.2 hPa | 0 mm | - | 33 W/m² | - |
| 1787574042 | 15° C | 99% | 1019.9 hPa | 0 mm | - | 31 W/m² | - |
| 1787573737 | 15° C | 99% | 1019.9 hPa | 0 mm | - | 31 W/m² | - |
| 1787573426 | 15° C | 99% | 1019.9 hPa | 0 mm | - | 29 W/m² | - |
| 1787573123 | 14.44° C | 99% | 1020.1 hPa | 0 mm | - | 25 W/m² | - |
* Rain latest hour (hover to see other rain measurements)
** Current wind speed in m/s (hover to see current wind gust speed)